Location: Newark
(15.5700°N, 75.3700°E)
Time: 05:18:37
(UTC+00:00)

ISS - Pass Details

Date: 19 November 2019
Orbit: 411 x 421 km, 51.6° (Epoch: 11 December)

Event Time Altitude Azimuth Distance (km) Brightness Sun altitude
Exits shadow 23:26:12 13° 182° (S) 1,309 -1.1 -23.1°
Drops below altitude 10° 23:26:45 10° 177° (S) 1,490 -0.8 -23.0°
Sets 23:29:03 0° 163° (SSE) 2,349 0.5 -22.4°
